HIMAWARI 1 AKM, 59985

Orbit data source: Space-Track

HIMAWARI 1 AKM, 59985 is space debris in GEO originally from a launch on Thu, 14 Jul 1977 UTC launched from the Air Force Eastern Test Range (AFETR). Debris objects in space refer to the collection of defunct objects orbiting the Earth. Examples of debris include non-operational satellites, rocket bodies, and fragments generated from explosions, collisions, or faulty payload assembly.

Loading next visibility...
Identifier
59985, 1977-065GQ
Orbit
GEO
Last TLE update
16 hours ago
Origin
Manufacturer
Thiokol/TE
Mission
Spacecraft
Bus & Motor
STAR 27, Unknown motor
Mass
Wet unknown, 24 kg dry
Launch date (UTC)
1977-07-14 (48 years ago)
Launch vehicle
Unknown
Launch site
Air Force Eastern Test Range (AFETR)
Object type
Payload
Rocket body
Debris
Shape & HBR
Unknown
Radar Cross Section
Medium (>0.1 m² and <1 m²)

Expand to show TLE details & history

TLE from 16 hours ago
0 HIMAWARI 1 AKM
1 59985U 77065GQ  25128.59800175  .00000058  00000-0  00000-0 0  9997
2 59985   5.2318 279.1116 0273813 109.4404 253.4186  1.01120693 42356
Epoch: 2025-05-08T14:21Z
Definitive object data (Epoch: 2025-05-08T14:21:07.351Z)
Latitude
Longitude
-162.97323°
Altitude
35,909.704 km
Speed
3.057 km/s
True Right ascension
18h 35m 53s
True Declination
0° 00' 00"
Sunlit
Object was in daylight at TLE epoch
Visualization TLE readout
Latitude
-5.07725°
Longitude
92.0276°
Altitude
36,488.658 km
Speed
3.015 km/s
Apparent Right ascension
11h 13m 56s
Apparent Declination
-11° 10' 22"
Sunlit
Object is in daylight
Visualization observer readout
Local Sidereal Time
14:59:54
Azimuth
238.763° WSW
Elevation
16.92°
Doppler factor
1
Orbital elements
Apogee altitude
36,699.43 km
Perigee altitude
34,403.262 km
Semi-major axis
41,929.483 km
Eccentricity
0.0273813
Inclination
5.2318°
RAAN
279.1116°
Arg. of periapsis
109.4404°
True anomaly
250.44185°
Mean anomaly
253.4186°
Eccentric anomaly
251.92717°
Mean motion
0.25279 °/min
BSTAR
Unknown
Orbital period
1424.09 mins
Loading historical data...
59985 neighbors
Loading maneuver chart data...
Loading SW <> Apogee altitude chart data...

HIMAWARI 1 AKM Visibility forecast

Observer location: undefined°, undefined°

Span
Click to sort rows by Start time (UTC) header in descending order
Start Az.
Max El. time (UTC)
Max El. Az.
Max El.
End time (UTC)
End Az.
1440 mins2025-05-09 06:51:00.682Z238.75° WSW2025-05-09 22:26:00.682Z244.52° WSW22.59°2025-05-10 06:51:00.682Z236.257° WSW
|